TimeAKDT,TemperatureF,Dew PointF,Humidity,Sea Level PressureIn,VisibilityMPH,Wind Direction,Wind SpeedMPH,Gust SpeedMPH,PrecipitationIn,Events,Conditions,WindDirDegrees,DateUTC
12:53 AM,52.0,51.1,97,29.81,10.0,Calm,Calm,-,0.00,Rain,Light Rain,0,2013-08-10 08:53:00
1:53 AM,52.0,50.0,93,29.81,10.0,NNE,3.5,-,0.01,Rain,Light Rain,20,2013-08-10 09:53:00
2:53 AM,52.0,50.0,93,29.82,10.0,Calm,Calm,-,0.01,Rain,Light Rain,0,2013-08-10 10:53:00
3:53 AM,52.0,50.0,93,29.83,10.0,NNE,3.5,-,0.00,Rain,Light Rain,30,2013-08-10 11:53:00
4:53 AM,51.1,50.0,96,29.83,10.0,Calm,Calm,-,0.00,Rain,Light Rain,0,2013-08-10 12:53:00
5:53 AM,51.1,50.0,96,29.83,10.0,Calm,Calm,-,0.00,Rain,Light Rain,0,2013-08-10 13:53:00
6:53 AM,51.1,50.0,96,29.82,10.0,NW,4.6,-,0.00,Rain,Light Rain,310,2013-08-10 14:53:00
7:53 AM,51.1,50.0,96,29.82,10.0,North,3.5,-,0.02,Rain,Light Rain,350,2013-08-10 15:53:00
8:53 AM,51.1,50.0,96,29.83,10.0,Calm,Calm,-,0.04,Rain,Light Rain,0,2013-08-10 16:53:00
9:53 AM,52.0,51.1,97,29.83,10.0,Calm,Calm,-,0.03,Rain,Light Rain,0,2013-08-10 17:53:00
10:53 AM,54.0,52.0,93,29.85,10.0,Calm,Calm,-,0.00,Rain,Light Rain,0,2013-08-10 18:53:00
11:53 AM,55.0,53.1,93,29.86,10.0,Calm,Calm,-,0.00,Rain,Light Rain,0,2013-08-10 19:53:00
12:53 PM,55.9,53.1,90,29.88,10.0,NNE,3.5,-,0.00,Rain,Light Rain,20,2013-08-10 20:53:00
1:53 PM,55.9,53.1,90,29.91,10.0,Calm,Calm,-,0.02,Rain,Light Rain,0,2013-08-10 21:53:00
2:28 PM,55.4,53.6,94,29.91,8.0,Variable,4.6,-,0.02,Rain,Light Rain,0,2013-08-10 22:28:00
2:40 PM,55.4,53.6,94,29.92,8.0,SSW,3.5,-,0.02,Rain,Light Rain,210,2013-08-10 22:40:00
2:53 PM,55.0,53.1,93,29.93,6.0,SSW,4.6,-,0.02,Rain,Light Rain,210,2013-08-10 22:53:00
3:53 PM,57.0,54.0,89,29.94,10.0,Calm,Calm,-,0.01,Rain,Light Rain,0,2013-08-10 23:53:00
4:00 PM,57.2,53.6,88,29.93,10.0,Calm,Calm,-,0.00,Rain,Light Rain,0,2013-08-11 00:00:00
4:05 PM,57.2,53.6,88,29.93,10.0,Calm,Calm,-,0.00,Rain,Light Rain,0,2013-08-11 00:05:00
4:53 PM,60.1,53.1,78,29.94,10.0,South,5.8,-,0.00,,Mostly Cloudy,190,2013-08-11 00:53:00
5:53 PM,60.1,53.1,78,29.96,10.0,Calm,Calm,-,N/A,,Mostly Cloudy,0,2013-08-11 01:53:00
6:53 PM,61.0,54.0,78,29.97,10.0,Calm,Calm,-,N/A,,Overcast,0,2013-08-11 02:53:00
7:53 PM,61.0,53.1,75,29.99,10.0,Calm,Calm,-,N/A,,Overcast,0,2013-08-11 03:53:00
8:53 PM,60.1,55.0,83,30.00,10.0,Calm,Calm,-,N/A,,Overcast,0,2013-08-11 04:53:00
9:53 PM,57.9,55.0,90,30.01,10.0,Calm,Calm,-,N/A,,Overcast,0,2013-08-11 05:53:00
10:53 PM,55.9,54.0,93,30.02,10.0,Calm,Calm,-,N/A,,Overcast,0,2013-08-11 06:53:00
11:53 PM,55.0,54.0,96,30.04,10.0,Calm,Calm,-,N/A,,Overcast,0,2013-08-11 07:53:00